Princeton, MN

4:53 PM CST on November 15, 2019 (GMT -0600)
Princeton Municipal

Weather History for KPNM - September, 2019

Change the Weather History Date:

Tuesday, September 17, 2019

  Actual Average Record
Temperature  
Mean Temperature 78 °F -  
Max Temperature 87 °F 68 °F 87 °F (2019)
Min Temperature 69 °F 45 °F 39 °F (2000)
Cooling Degree Days 13    
Growing Degree Days 28 (Base 50)    
Moisture  
Dew Point 70 °F    
Average Humidity 77    
Maximum Humidity 94    
Minimum Humidity 58    
Precipitation  
Precipitation 0.00 in - - ()
Sea Level Pressure  
Sea Level Pressure 29.92 in    
Wind  
Wind Speed 8 mph (SE)    
Max Wind Speed 18 mph    
Max Gust Speed 30 mph    
Visibility 10 miles    
Events Rain , Thunderstorm    
Averages and records for this station are not official NWS values.
T = Trace of Precipitation, MM = Missing Value Source: NWS Daily Summary

Daily Weather History Graph

Daily Weather History Graph

Search for Another Location

Airport or City:

Astronomy

Sep. 17, 2019 Rise Set
Actual Time 6:55 AM CDT 7:22 PM CDT
Civil Twilight 6:25 AM CDT 7:51 PM CDT
Nautical Twilight 5:50 AM CDT 8:26 PM CDT
Astronomical Twilight 5:13 AM CDT 9:03 PM CDT
Moon 9:16 PM CDT (9/17) 10:08 AM CDT (9/17)
Length of Visible Light 13h 26m
Length of Day
12h 26m
Waning Gibbous, 89% of the Moon is Illuminated
Sep 17
Waning Gibbous
Sep 21
Last Quarter
Sep 28
New
Oct 5
First Quarter
Oct 13
Full

Hourly Weather History & Observations

Time (CDT) Temp. Heat Index Dew Point Humidity Pressure Visibility Wind Dir Wind Speed Gust Speed Precip Events Conditions
12:15 AM 73.4 °F - 69.8 °F 88% 29.97 in 10.0 mi SE 4.6 mph - N/A   Clear
12:35 AM 73.4 °F - 71.6 °F 94% 29.96 in 10.0 mi SE 5.8 mph - N/A   Clear
12:36 AM 73.4 °F - 71.6 °F 94% 29.96 in 10.0 mi SE 5.8 mph - N/A   Clear
12:59 AM 73.4 °F - 71.6 °F 94% 29.96 in 10.0 mi SE 5.8 mph - N/A   Clear
1:17 AM 73.4 °F - 71.6 °F 94% 29.96 in 10.0 mi SE 3.5 mph - N/A   Clear
1:35 AM 73.4 °F - 71.6 °F 94% 29.96 in 10.0 mi SE 5.8 mph - N/A   Clear
1:36 AM 73.4 °F - 71.6 °F 94% 29.96 in 10.0 mi SE 5.8 mph - N/A   Clear
1:55 AM 73.4 °F - 71.6 °F 94% 29.96 in 10.0 mi SSE 5.8 mph - N/A   Clear
2:15 AM 73.4 °F - 71.6 °F 94% 29.97 in 10.0 mi SSE 6.9 mph - N/A   Clear
2:38 AM 73.4 °F - 69.8 °F 88% 29.96 in 10.0 mi SSE 5.8 mph - N/A   Clear
2:56 AM 73.4 °F - 69.8 °F 88% 29.96 in 7.0 mi SE 5.8 mph - N/A   Clear
3:15 AM 73.4 °F - 69.8 °F 88% 29.96 in 10.0 mi SE 4.6 mph - N/A   Clear
3:35 AM 73.4 °F - 69.8 °F 88% 29.96 in 10.0 mi SE 6.9 mph - N/A   Clear
3:59 AM 73.4 °F - 69.8 °F 88% 29.96 in 10.0 mi SE 5.8 mph - N/A   Clear
4:17 AM 73.4 °F - 69.8 °F 88% 29.97 in 10.0 mi SE 6.9 mph - N/A   Clear
4:35 AM 73.4 °F - 69.8 °F 88% 29.97 in 10.0 mi SE 6.9 mph - N/A   Clear
4:36 AM 73.4 °F - 69.8 °F 88% 29.97 in 10.0 mi SE 6.9 mph - N/A   Clear
4:55 AM 73.4 °F - 69.8 °F 88% 29.96 in 10.0 mi SE 6.9 mph - N/A   Clear
5:38 AM 71.6 °F - 68.0 °F 88% 29.97 in 10.0 mi ESE 5.8 mph - N/A   Clear
5:56 AM 71.6 °F - 68.0 °F 88% 29.97 in 10.0 mi ESE 4.6 mph - N/A   Clear
6:15 AM 71.6 °F - 68.0 °F 88% 29.97 in 10.0 mi ESE 3.5 mph - N/A   Clear
6:16 AM 71.6 °F - 68.0 °F 88% 29.98 in 10.0 mi ESE 4.6 mph - N/A   Clear
6:36 AM 71.6 °F - 66.2 °F 83% 29.97 in 10.0 mi ESE 6.9 mph - N/A   Clear
6:59 AM 71.6 °F - 66.2 °F 83% 29.98 in 10.0 mi ESE 6.9 mph - N/A Thunderstorm Thunderstorm
7:17 AM 71.6 °F - 66.2 °F 83% 29.98 in 10.0 mi ESE 5.8 mph - N/A Thunderstorm Clear
7:35 AM 71.6 °F - 66.2 °F 83% 29.98 in 10.0 mi ESE 4.6 mph - N/A Thunderstorm Clear
7:55 AM 71.6 °F - 66.2 °F 83% 29.97 in 10.0 mi ESE 3.5 mph - N/A   Clear
8:15 AM 71.6 °F - 66.2 °F 83% 29.97 in 10.0 mi ESE 5.8 mph - N/A Thunderstorm Thunderstorm
8:36 AM 71.6 °F - 66.2 °F 83% 29.97 in 10.0 mi Calm Calm - N/A Thunderstorm Mostly Cloudy
8:55 AM 71.6 °F - 66.2 °F 83% 30.00 in 10.0 mi NW 9.2 mph - N/A Thunderstorm Thunderstorm
9:16 AM 71.6 °F - 66.2 °F 83% 29.99 in 10.0 mi NNE 3.5 mph - N/A Thunderstorm Thunderstorm
9:35 AM 69.8 °F - 66.2 °F 88% 29.99 in 10.0 mi NNE 6.9 mph - N/A Rain , Thunderstorm Light Thunderstorms and Rain
9:36 AM 69.8 °F - 66.2 °F 88% 29.99 in 10.0 mi NNE 6.9 mph - N/A Rain , Thunderstorm Thunderstorms and Rain
9:58 AM 69.8 °F - 68.0 °F 94% 29.97 in 10.0 mi East 8.1 mph - N/A Thunderstorm Thunderstorm
10:15 AM 69.8 °F - 68.0 °F 94% 29.97 in 10.0 mi East 5.8 mph - N/A Thunderstorm Mostly Cloudy
10:35 AM 71.6 °F - 68.0 °F 88% 29.97 in 10.0 mi East 5.8 mph - N/A   Scattered Clouds
10:58 AM 71.6 °F - 68.0 °F 88% 29.97 in 10.0 mi ENE 6.9 mph - N/A Rain Light Rain
11:16 AM 71.6 °F - 69.8 °F 94% 29.96 in 10.0 mi ESE 5.8 mph - N/A   Clear
11:35 AM 75.2 °F - 69.8 °F 83% 29.95 in 10.0 mi East 6.9 mph - N/A   Clear
11:55 AM 78.8 °F - 69.8 °F 74% 29.94 in 10.0 mi East 8.1 mph - N/A   Clear
11:56 AM 78.8 °F - 69.8 °F 74% 29.94 in 10.0 mi East 9.2 mph - N/A   Clear
12:18 PM 80.6 °F 83.9 °F 69.8 °F 70% 29.93 in 10.0 mi SE 11.5 mph 20.7 mph N/A   Clear
12:37 PM 82.4 °F 87.2 °F 71.6 °F 70% 29.92 in 10.0 mi SE 11.5 mph 18.4 mph N/A   Clear
12:55 PM 82.4 °F 87.2 °F 71.6 °F 70% 29.91 in 10.0 mi SE 10.4 mph - N/A   Clear
1:16 PM 86.0 °F 90.4 °F 69.8 °F 58% 29.91 in 10.0 mi South 13.8 mph 25.3 mph N/A   Clear
1:35 PM 86.0 °F 90.4 °F 69.8 °F 58% 29.90 in 10.0 mi SSE 15.0 mph 24.2 mph N/A   Clear
1:40 PM 86.0 °F 91.8 °F 71.6 °F 62% 29.90 in 10.0 mi SSE 18.4 mph 23.0 mph N/A   Clear
1:58 PM 87.8 °F 93.8 °F 71.6 °F 58% 29.89 in 10.0 mi SSE 17.3 mph 27.6 mph N/A   Clear
2:16 PM 87.8 °F 93.8 °F 71.6 °F 58% 29.88 in 10.0 mi SSE 16.1 mph 29.9 mph N/A   Clear
2:35 PM 87.8 °F 93.8 °F 71.6 °F 58% 29.88 in 10.0 mi SSE 13.8 mph 26.5 mph N/A   Clear
2:56 PM 87.8 °F 93.8 °F 71.6 °F 58% 29.88 in 10.0 mi South 16.1 mph 26.5 mph N/A   Clear
3:19 PM 86.0 °F 91.8 °F 71.6 °F 62% 29.87 in 10.0 mi SSE 12.7 mph 24.2 mph N/A   Clear
3:37 PM 87.8 °F 93.8 °F 71.6 °F 58% 29.87 in 10.0 mi SSE 11.5 mph 24.2 mph N/A   Clear
3:55 PM 87.8 °F 93.8 °F 71.6 °F 58% 29.87 in 10.0 mi SSE 9.2 mph 21.9 mph N/A   Clear
3:56 PM 87.8 °F 93.8 °F 71.6 °F 58% 29.87 in 10.0 mi SSE 12.7 mph 21.9 mph N/A   Clear
4:15 PM 86.0 °F 91.8 °F 71.6 °F 62% 29.86 in 10.0 mi SSE 17.3 mph 27.6 mph N/A   Clear
4:35 PM 87.8 °F 93.8 °F 71.6 °F 58% 29.86 in 10.0 mi SSE 15.0 mph 25.3 mph N/A   Clear
4:58 PM 87.8 °F 95.6 °F 73.4 °F 62% 29.85 in 10.0 mi SSE 13.8 mph 21.9 mph N/A   Clear
5:16 PM 87.8 °F 95.6 °F 73.4 °F 62% 29.85 in 10.0 mi SSE 12.7 mph 20.7 mph N/A   Clear
5:35 PM 87.8 °F 93.8 °F 71.6 °F 58% 29.85 in 10.0 mi SSE 11.5 mph - N/A   Clear
5:55 PM 86.0 °F 91.8 °F 71.6 °F 62% 29.85 in 10.0 mi SSE 13.8 mph 19.6 mph N/A   Clear
6:19 PM 84.2 °F 89.6 °F 71.6 °F 66% 29.86 in 10.0 mi SSE 11.5 mph 19.6 mph N/A   Clear
6:37 PM 84.2 °F 89.6 °F 71.6 °F 66% 29.86 in 10.0 mi SE 11.5 mph - N/A   Clear
6:55 PM 84.2 °F 89.6 °F 71.6 °F 66% 29.86 in 10.0 mi SE 12.7 mph 18.4 mph N/A   Clear
7:15 PM 82.4 °F 87.2 °F 71.6 °F 70% 29.86 in 10.0 mi SSE 13.8 mph 21.9 mph N/A   Clear
7:35 PM 82.4 °F 86.3 °F 69.8 °F 66% 29.86 in 10.0 mi SSE 12.7 mph 18.4 mph N/A   Clear
7:40 PM 82.4 °F 86.3 °F 69.8 °F 66% 29.86 in 10.0 mi SSE 11.5 mph 18.4 mph N/A   Clear
7:58 PM 82.4 °F 86.3 °F 69.8 °F 66% 29.87 in 10.0 mi SSE 10.4 mph 16.1 mph N/A   Clear
8:16 PM 80.6 °F 83.9 °F 69.8 °F 70% 29.87 in 10.0 mi SSE 11.5 mph 17.3 mph N/A   Clear
8:35 PM 80.6 °F 83.9 °F 69.8 °F 70% 29.87 in 10.0 mi SE 9.2 mph 17.3 mph N/A   Clear
8:55 PM 80.6 °F 83.9 °F 69.8 °F 70% 29.88 in 10.0 mi SE 9.2 mph - N/A   Clear
8:56 PM 80.6 °F 83.9 °F 69.8 °F 70% 29.88 in 10.0 mi SE 10.4 mph - N/A   Clear
9:19 PM 80.6 °F 83.9 °F 69.8 °F 70% 29.88 in 10.0 mi SE 10.4 mph - N/A   Clear
9:37 PM 80.6 °F 83.9 °F 69.8 °F 70% 29.88 in 10.0 mi SE 12.7 mph 18.4 mph N/A   Clear
9:55 PM 78.8 °F - 69.8 °F 74% 29.88 in 10.0 mi SE 11.5 mph 18.4 mph N/A   Clear
10:15 PM 78.8 °F - 69.8 °F 74% 29.88 in 10.0 mi SSE 13.8 mph 19.6 mph N/A   Clear
10:35 PM 78.8 °F - 69.8 °F 74% 29.88 in 10.0 mi SSE 11.5 mph 20.7 mph N/A   Clear
10:40 PM 78.8 °F - 69.8 °F 74% 29.88 in 10.0 mi SSE 12.7 mph 18.4 mph N/A   Clear
10:58 PM 78.8 °F - 69.8 °F 74% 29.88 in 10.0 mi SSE 11.5 mph 19.6 mph N/A   Clear
11:16 PM 77.0 °F - 69.8 °F 78% 29.88 in 10.0 mi SSE 10.4 mph 16.1 mph N/A   Clear
11:35 PM 77.0 °F - 69.8 °F 78% 29.88 in 10.0 mi SE 11.5 mph 16.1 mph N/A   Clear
11:55 PM 75.2 °F - 69.8 °F 83% 29.88 in 10.0 mi SSE 10.4 mph 17.3 mph N/A   Clear
11:56 PM 75.2 °F - 69.8 °F 83% 29.88 in 10.0 mi SE 10.4 mph 17.3 mph N/A   Clear